Location: Winthrop
(48.4780°N, 120.1850°W)
Time: 22:11:55
(UTC-07:00)

deb Explorer IX - All Passes

Search period start: 22 September 2023 00:00
Search period end: 02 October 2023 00:00
Orbit: 529 x 970 km, 38.8° (Epoch: 22 September)

Date Brightness Start Highest point End Pass type
(mag) Time Alt. Az. Time Alt. Az. Time Alt. Az.
22 Sep - 04:10:22 10° S 04:14:12 16° SSE 04:18:02 10° ESE visible
22 Sep - 05:53:08 10° SW 05:58:44 30° SSE 06:04:08 10° ESE visible
22 Sep - 07:37:50 10° WSW 07:43:33 33° S 07:48:53 10° ESE daylight
22 Sep - 09:23:33 10° WSW 09:28:07 21° SSW 09:32:22 10° SSE daylight
23 Sep - 03:25:40 10° S 03:28:36 13° SSE 03:31:32 10° ESE visible
23 Sep - 05:07:33 10° SW 05:13:00 28° SSE 05:18:20 10° ESE visible
23 Sep - 06:51:58 10° WSW 06:57:47 35° S 07:03:19 10° ESE daylight
23 Sep - 08:37:25 10° WSW 08:42:28 25° SSW 08:47:12 10° SSE daylight
24 Sep - 02:42:03 10° SSE 02:42:56 10° SE 02:43:48 10° SE visible
24 Sep - 04:21:59 10° SSW 04:27:10 25° SSE 04:32:21 10° ESE visible
24 Sep - 06:06:03 10° WSW 06:11:54 35° S 06:17:35 10° ESE visible
24 Sep - 07:51:15 10° WSW 07:56:40 28° SSW 08:01:47 10° SE daylight
24 Sep - 09:38:11 10° WSW 09:40:56 13° SW 09:43:35 10° S daylight
25 Sep - 03:36:27 10° SSW 03:41:16 22° SSE 03:46:08 10° ESE visible
25 Sep - 05:20:06 10° SW 05:25:55 34° S 05:31:38 10° ESE visible
25 Sep - 07:05:04 10° WSW 07:10:43 31° SSW 07:16:07 10° SE daylight
25 Sep - 08:51:17 10° WSW 08:55:08 17° SSW 08:58:49 10° S daylight
26 Sep - 02:51:01 10° SSW 02:55:17 19° SSE 02:59:39 10° ESE visible
26 Sep - 04:34:08 10° SW 04:39:49 33° S 04:45:32 10° ESE visible
26 Sep - 06:18:51 10° WSW 06:24:38 33° S 06:30:16 10° SE visible
26 Sep - 08:04:38 10° WSW 08:09:11 20° SSW 08:13:34 10° SSE daylight
27 Sep - 02:05:45 10° S 02:09:14 15° SSE 02:12:50 10° ESE visible
27 Sep - 03:48:10 10° SW 03:53:38 30° SSE 03:59:13 10° ESE visible
27 Sep - 05:32:36 10° WSW 05:38:25 35° S 05:44:12 10° ESE visible
27 Sep - 07:18:03 10° WSW 07:23:05 24° SSW 07:27:58 10° SSE daylight
28 Sep - 01:20:56 10° SSE 01:23:09 12° SE 01:25:25 10° ESE night (unlit)
28 Sep - 03:02:12 10° SW 03:07:22 27° SSE 03:12:45 10° ESE visible
28 Sep - 04:46:19 10° WSW 04:52:06 35° S 04:57:57 10° ESE visible
28 Sep - 06:31:29 10° WSW 06:36:50 27° SSW 06:42:05 10° SE daylight
28 Sep - 08:18:54 10° SW 08:21:03 12° SW 08:23:12 10° SSW daylight
29 Sep - 02:16:15 10° SSW 02:21:02 24° SSE 02:26:03 10° ESE visible
29 Sep - 04:00:00 10° WSW 04:05:40 35° S 04:11:30 10° ESE visible
29 Sep - 05:44:55 10° WSW 05:50:26 30° SSW 05:55:57 10° SE visible
29 Sep - 07:31:19 10° WSW 07:34:49 15° SSW 07:38:17 10° S daylight
30 Sep - 01:30:24 10° SSW 01:34:38 20° SSE 01:39:08 10° ESE night (unlit)
30 Sep - 03:13:40 10° SW 03:19:08 33° S 03:24:54 10° ESE visible
30 Sep - 04:58:19 10° WSW 05:03:55 32° S 05:09:37 10° SE visible
30 Sep - 06:44:09 10° WSW 06:48:26 18° SSW 06:52:40 10° SSE daylight
01 Oct - 00:44:41 10° S 00:48:12 16° SSE 00:51:55 10° ESE night (unlit)
01 Oct - 02:27:18 10° SW 02:32:33 31° SSE 02:38:06 10° ESE visible
01 Oct - 04:11:43 10° WSW 04:17:17 34° S 04:23:03 10° SE visible
01 Oct - 05:57:08 10° WSW 06:01:53 22° SSW 06:06:39 10° SSE visible
